Location: Tamazert
(32.6352°N, 5.2072°W)
Time: 01:01:24
(UTC+00:00)

Altair - Pass Details

Date: 08 October 2022
Orbit: 1501 x 1682 km, 47.2° (Epoch: 05 December)

Event Time Altitude Azimuth Distance (km) Brightness Sun altitude
Exits shadow 04:32:46 35° 277° (W) 2,369 7.9 -23.3°
Maximum altitude 04:36:50 53° 333° (NNW) 1,911 7.8 -22.4°
Drops below altitude 10° 04:46:32 10° 49° (NE) 3,900 10.4 -20.4°
Sets 04:49:52 0° 55° (NE) 4,907 11.2 -19.7°
